Find Kosmos-2014

NORAD ID: 19908 Int'l Des: 1989-025 Owner: UNKS Country: SU operational
LEOCIRCULAR

リアルタイム位置

3D地球を読み込み中...

Kosmos-2014について

説明を読み込み中...

次回通過

Passes for default location (London). Set your location on the main map for personalized predictions.

高度履歴

Loading altitude history...

軌道要素

1 19908U 89025G 26106.89204788 .00000014 00000-0 20377-3 0 9999
2 19908 74.0086 151.1158 0013270 238.6382 295.5106 12.46289416686204
Epoch: Apr 16, 2026 • Age: 3 hours

現在のステータス

高度 1501.0 km
速度 7.12 km/s
衛星直下点 63.96°N, 29.01°W
打ち上げ日 Mar 24, 1989
運用期間 37 years
タイプ other

技術仕様

分類 Payload
質量 60.00 kg
乾燥質量 60.00 kg
総質量 60.00 kg
長さ 0.80 m
直径 0.80 m
スパン 0.80 m
形状 Poly
製造者 NPOPM
バスタイプ Strela-1 11F625
フェーズステータス In Orbit
所有者/国 UNKS/SU

Most Searched